When you browse on this site, cookies collect data to enhance your experience and personalize the content and advertising you see.
Visit our Privacy Policy to learn more. By continuing to use the site, you agree to this use of cookies and data.

Tiempo cada hora San Miguel de Tucumán

Hoy, 14 Agosto, Viernes

Tiempo Temperatura Precipitaciones Viento Presión Humedad
00:00 +12°C° 0 mm 1 mps 715 mmHg 32%
01:00 +11°C° 0 mm 1 mps 714 mmHg 33%
02:00 +11°C° 0 mm 1 mps 713 mmHg 32%
03:00 +11°C° 0 mm 1 mps 713 mmHg 33%
04:00 +10°C° 0 mm 1 mps 712 mmHg 34%
05:00 +10°C° 0 mm 1 mps 712 mmHg 35%
06:00 +11°C° 0 mm 1 mps 712 mmHg 33%
07:00 +12°C° 0 mm 2 mps 712 mmHg 31%
08:00 +13°C° 0 mm 2 mps 712 mmHg 29%
09:00 +16°C° 0 mm 2 mps 713 mmHg 25%
10:00 +19°C° 0 mm 2 mps 713 mmHg 20%
11:00 +23°C° 0 mm 2 mps 713 mmHg 16%
12:00 +24°C° 0 mm 2 mps 713 mmHg 15%
13:00 +25°C° 0 mm 2 mps 713 mmHg 13%
14:00 +27°C° 0 mm 3 mps 713 mmHg 12%
15:00 +26°C° 0 mm 2 mps 713 mmHg 12%
16:00 +26°C° 0 mm 2 mps 713 mmHg 13%
17:00 +26°C° 0 mm 2 mps 713 mmHg 14%
18:00 +23°C° 0 mm 1 mps 714 mmHg 17%
19:00 +20°C° 0 mm 1 mps 715 mmHg 21%
20:00 +16°C° 0 mm 1 mps 716 mmHg 24%
21:00 +16°C° 0 mm 1 mps 716 mmHg 25%
22:00 +15°C° 0 mm 1 mps 717 mmHg 25%
23:00 +15°C° 0 mm 1 mps 717 mmHg 26%

Mañana, 15 Agosto, Sábado

Tiempo Temperatura Precipitaciones Viento Presión Humedad
00:00 +14°C° 0 mm 1 mps 717 mmHg 28%
01:00 +14°C° 0 mm 1 mps 718 mmHg 29%
02:00 +13°C° 0 mm 1 mps 718 mmHg 31%
03:00 +12°C° 0 mm 1 mps 718 mmHg 32%
04:00 +12°C° 0 mm 1 mps 718 mmHg 34%
05:00 +11°C° 0 mm 1 mps 717 mmHg 35%
06:00 +11°C° 0 mm 1 mps 718 mmHg 35%
07:00 +12°C° 0 mm 1 mps 718 mmHg 35%
08:00 +12°C° 0 mm 1 mps 719 mmHg 34%
09:00 +15°C° 0 mm 1 mps 718 mmHg 33%
10:00 +18°C° 0 mm 1 mps 718 mmHg 32%
11:00 +21°C° 0 mm 1 mps 718 mmHg 31%
12:00 +22°C° 0 mm 1 mps 718 mmHg 29%
13:00 +23°C° 0 mm 2 mps 717 mmHg 28%
14:00 +24°C° 0 mm 2 mps 716 mmHg 26%
15:00 +24°C° 0 mm 2 mps 716 mmHg 28%
16:00 +23°C° 0 mm 2 mps 716 mmHg 30%
17:00 +23°C° 0 mm 2 mps 716 mmHg 32%
18:00 +20°C° 0 mm 2 mps 717 mmHg 38%
19:00 +18°C° 0 mm 1 mps 718 mmHg 44%
20:00 +15°C° 0 mm 1 mps 719 mmHg 50%
21:00 +14°C° 0 mm 1 mps 719 mmHg 52%
22:00 +14°C° 0 mm 1 mps 720 mmHg 54%
23:00 +12°C° 0 mm 0 mps 720 mmHg 55%

Pasado mañana, 16 Agosto, Domingo

Tiempo Temperatura Precipitaciones Viento Presión Humedad
00:00 +12°C° 0 mm 0 mps 720 mmHg 57%
01:00 +11°C° 0 mm 0 mps 720 mmHg 59%
02:00 +11°C° 0 mm 0 mps 720 mmHg 61%
03:00 +10°C° 0 mm 0 mps 720 mmHg 63%
04:00 +9°C° 0 mm 0 mps 720 mmHg 66%
05:00 +9°C° 0 mm 0 mps 719 mmHg 68%
06:00 +10°C° 0 mm 0 mps 720 mmHg 64%
07:00 +11°C° 0 mm 0 mps 720 mmHg 60%
08:00 +11°C° 0 mm 0 mps 720 mmHg 55%
09:00 +15°C° 0 mm 1 mps 720 mmHg 48%
10:00 +19°C° 0 mm 1 mps 720 mmHg 41%
11:00 +20°C° 0 mm 2 mps 720 mmHg 34%
12:00 +23°C° 0 mm 2 mps 719 mmHg 33%
13:00 +24°C° 0 mm 2 mps 718 mmHg 31%
14:00 +26°C° 0 mm 3 mps 717 mmHg 29%
15:00 +25°C° 0 mm 3 mps 717 mmHg 31%
16:00 +25°C° 0 mm 3 mps 716 mmHg 32%
17:00 +24°C° 0 mm 3 mps 716 mmHg 34%
18:00 +21°C° 0 mm 2 mps 716 mmHg 41%
19:00 +18°C° 0 mm 2 mps 717 mmHg 47%
20:00 +16°C° 0 mm 1 mps 717 mmHg 54%
21:00 +15°C° 0 mm 1 mps 718 mmHg 56%
22:00 +15°C° 0 mm 1 mps 718 mmHg 57%
23:00 +14°C° 0 mm 1 mps 718 mmHg 59%

17 Agosto, Lunes

Tiempo Temperatura Precipitaciones Viento Presión Humedad
00:00 +14°C° 0 mm 1 mps 718 mmHg 60%
01:00 +13°C° 0 mm 1 mps 718 mmHg 62%
02:00 +13°C° 0 mm 1 mps 717 mmHg 64%
03:00 +12°C° 0 mm 1 mps 717 mmHg 66%
04:00 +12°C° 0 mm 1 mps 717 mmHg 68%
05:00 +11°C° 0 mm 1 mps 717 mmHg 71%
06:00 +12°C° 0 mm 1 mps 718 mmHg 66%
07:00 +13°C° 0 mm 1 mps 718 mmHg 61%
08:00 +13°C° 0 mm 0 mps 718 mmHg 57%
09:00 +18°C° 0 mm 1 mps 718 mmHg 49%
10:00 +20°C° 0 mm 1 mps 718 mmHg 42%
11:00 +23°C° 0 mm 1 mps 718 mmHg 34%
12:00 +24°C° 0 mm 2 mps 717 mmHg 31%
13:00 +25°C° 0 mm 2 mps 716 mmHg 29%
14:00 +26°C° 0 mm 3 mps 715 mmHg 26%
15:00 +26°C° 0 mm 3 mps 714 mmHg 26%
16:00 +26°C° 0 mm 3 mps 714 mmHg 27%
17:00 +25°C° 0 mm 3 mps 713 mmHg 27%
18:00 +22°C° 0 mm 3 mps 713 mmHg 32%
19:00 +19°C° 0 mm 2 mps 714 mmHg 38%
20:00 +17°C° 0 mm 2 mps 714 mmHg 43%
21:00 +16°C° 0 mm 2 mps 714 mmHg 45%
22:00 +15°C° 0 mm 1 mps 713 mmHg 46%
23:00 +15°C° 0 mm 1 mps 713 mmHg 48%

18 Agosto, Martes

Tiempo Temperatura Precipitaciones Viento Presión Humedad
00:00 +14°C° 0 mm 1 mps 713 mmHg 48%
01:00 +14°C° 0 mm 1 mps 712 mmHg 49%
02:00 +13°C° 0 mm 1 mps 711 mmHg 49%
03:00 +13°C° 0 mm 1 mps 711 mmHg 49%
04:00 +13°C° 0 mm 1 mps 711 mmHg 49%
05:00 +12°C° 0 mm 1 mps 711 mmHg 49%
06:00 +13°C° 0 mm 1 mps 711 mmHg 45%
07:00 +14°C° 0 mm 1 mps 711 mmHg 41%
08:00 +15°C° 0 mm 1 mps 712 mmHg 38%
09:00 +19°C° 0 mm 1 mps 712 mmHg 33%
10:00 +23°C° 0 mm 1 mps 712 mmHg 27%
11:00 +26°C° 0 mm 2 mps 712 mmHg 22%
12:00 +27°C° 0 mm 2 mps 712 mmHg 19%
13:00 +28°C° 0 mm 2 mps 711 mmHg 16%
14:00 +30°C° 0 mm 3 mps 711 mmHg 13%
15:00 +29°C° 0 mm 3 mps 711 mmHg 14%
16:00 +28°C° 0 mm 3 mps 711 mmHg 15%
17:00 +28°C° 0 mm 3 mps 711 mmHg 16%
18:00 +25°C° 0 mm 3 mps 712 mmHg 22%
19:00 +21°C° 0 mm 2 mps 713 mmHg 28%
20:00 +19°C° 0 mm 1 mps 713 mmHg 34%
21:00 +17°C° 0 mm 2 mps 714 mmHg 36%
22:00 +17°C° 0 mm 2 mps 715 mmHg 37%
23:00 +16°C° 0 mm 3 mps 716 mmHg 39%

19 Agosto, Miércoles

Tiempo Temperatura Precipitaciones Viento Presión Humedad
00:00 +14°C° 0 mm 3 mps 717 mmHg 43%
01:00 +12°C° 0 mm 3 mps 718 mmHg 47%
02:00 +11°C° 0 mm 3 mps 718 mmHg 51%
03:00 +10°C° 0 mm 3 mps 719 mmHg 52%
04:00 +10°C° 0 mm 3 mps 720 mmHg 52%
05:00 +9°C° 0 mm 3 mps 720 mmHg 52%
06:00 +9°C° 0 mm 3 mps 721 mmHg 51%
07:00 +9°C° 0 mm 3 mps 722 mmHg 50%
08:00 +8°C° 0 mm 4 mps 723 mmHg 50%
09:00 +8°C° 0 mm 4 mps 724 mmHg 50%
10:00 +8°C° 0 mm 4 mps 724 mmHg 50%
11:00 +8°C° 0 mm 4 mps 725 mmHg 50%
12:00 +10°C° 0 mm 4 mps 724 mmHg 46%
13:00 +10°C° 0 mm 5 mps 724 mmHg 43%
14:00 +12°C° 0 mm 5 mps 724 mmHg 39%
15:00 +12°C° 0 mm 5 mps 724 mmHg 37%
16:00 +12°C° 0 mm 5 mps 725 mmHg 36%
17:00 +10°C° 0 mm 5 mps 725 mmHg 34%
18:00 +10°C° 0 mm 4 mps 726 mmHg 36%
19:00 +9°C° 0 mm 3 mps 728 mmHg 38%
20:00 +7°C° 0 mm 2 mps 729 mmHg 40%
21:00 +7°C° 0 mm 2 mps 729 mmHg 41%
22:00 +6°C° 0 mm 2 mps 730 mmHg 42%
23:00 +5°C° 0 mm 2 mps 731 mmHg 43%
Mostrar más